Location: Forest
(37.3641°N, 79.2902°W)
Time: 00:30:31
(UTC+00:00)

Explorer 11/Cluster Stage 4 - Visible Passes

Search period start: 07 December 2025 00:00
Search period end: 17 December 2025 00:00
Orbit: 463 x 1181 km, 28.8° (Epoch: 06 December)

Date Brightness Start Highest point End Pass type
(mag) Time Alt. Az. Time Alt. Az. Time Alt. Az.
09 Dec 9.2 01:04:10 10° SSW 01:05:23 13° SSW 01:05:23 13° SSW visible
10 Dec 8.8 00:39:57 10° SSW 00:43:15 18° S 00:43:15 18° S visible
11 Dec 8.5 00:15:44 10° SSW 00:20:46 21° SSE 00:21:07 21° SSE visible
11 Dec 8.5 23:51:33 10° SSW 23:56:57 22° SSE 23:58:57 20° SE visible
12 Dec 9.2 01:38:24 10° WSW 01:40:13 17° SW 01:40:13 17° SW visible
12 Dec 8.6 23:27:23 10° SSW 23:33:06 24° SSE 23:36:44 16° ESE visible
13 Dec 8.6 01:14:17 10° WSW 01:18:01 27° SW 01:18:01 27° SW visible
13 Dec 8.7 23:03:14 10° SSW 23:09:12 25° SSE 23:14:30 11° ESE visible
14 Dec 8.1 00:50:10 10° WSW 00:55:46 36° SSW 00:55:46 36° SSW visible
14 Dec 8.8 22:39:07 10° SSW 22:45:17 26° SSE 22:51:03 10° ESE visible
15 Dec 7.9 00:26:04 10° WSW 00:32:55 39° S 00:33:31 38° SSE visible
15 Dec 9.7 02:14:12 10° WSW 02:14:48 12° WSW 02:14:48 12° WSW visible
15 Dec 8.8 22:15:03 10° SW 22:21:20 27° SSE 22:27:19 10° ESE visible
16 Dec 8.0 00:01:58 10° WSW 00:09:00 40° S 00:11:16 32° SE visible
16 Dec 9.2 01:50:05 10° WSW 01:52:32 20° WSW 01:52:32 20° WSW visible
16 Dec 8.1 23:37:53 10° WSW 23:45:03 41° S 23:49:00 23° ESE visible
